Location: Clair
(33.8067°N, 117.9845°W)
Time: 20:04:49
(UTC+00:00)

Daily predictions for brighter satellites

Satellite Brightness Start Highest point End
(mag) Time Altitude Azimuth Time Altitude Azimuth Time Altitude Azimuth
Cosmos 1000 Rocket 4.4 12:13:15 10° N 12:19:36 88° E 12:25:55 10° S
Cosmos 2227 Rocket 2.9 12:20:24 19° N 12:24:15 51° ENE 12:29:44 10° SE
COSMOS 2455 3.2 12:27:33 51° NNW 12:27:33 51° NNW 12:32:21 10° NNE
Cosmos 1378 Rocket 3.9 12:31:47 60° E 12:31:47 60° E 12:36:00 10° SSE
Cosmos 2123 Rocket 4.1 12:25:46 10° N 12:31:59 75° E 12:38:08 10° S
OAO 2 Rocket 3.8 12:38:21 46° S 12:38:21 46° S 12:42:53 10° SE
NOSS 3-1 (C) 3.3 12:39:19 46° N 12:39:19 46° N 12:43:13 10° NNE
Cosmos 1025 Rocket 4.5 12:35:42 10° N 12:39:46 37° E 12:43:46 10° SSE
SL-4 R/B 4.0 12:42:28 16° NNE 12:43:12 17° NNE 12:45:41 10° ENE
NOSS 3-1 (A) 3.6 12:42:44 19° S 12:45:41 47° ESE 12:50:24 10° NE
Cosmos 1980 Rocket 2.1 12:45:35 58° W 12:46:08 62° WNW 12:51:40 10° NNE
FALCON 9 R/B 1.8 12:53:07 39° E 12:53:07 39° E 12:54:38 10° E
Cosmos 1934 Rocket 3.9 12:46:55 10° SSW 12:52:51 55° W 12:58:54 10° N
Cosmos 1697 Rocket 4.4 12:59:10 17° NNW 12:59:10 17° NNW 13:01:07 10° N
OAO 3 Rocket 4.2 13:00:36 27° SSW 13:00:36 27° SSW 13:04:28 10° SSE
Meteor 1-11 4.2 12:58:17 10° NNW 13:04:06 66° W 13:09:52 10° S
ISS -3.4 13:06:08 51° N 13:06:08 51° N 13:09:01 10° NE
Cosmos 2237 4.4 13:01:14 10° SSW 13:06:54 74° ESE 13:12:35 10° NNE
Cosmos 2297 Rocket 3.7 13:10:55 18° SW 13:10:55 18° SW 13:12:51 10° SSW
Cosmos 1674 Rocket 3.4 13:04:47 10° NNW 13:09:10 70° W 13:13:30 10° S
SL-23 DEB 4.4 13:11:23 31° SSW 13:11:23 31° SSW 13:14:11 10° SSE
Cosmos 1605 Rocket 4.0 13:08:50 10° SSW 13:15:10 67° W 13:21:32 10° N
Cosmos 1503 Rocket 4.4 13:13:26 30° WSW 13:15:11 38° WNW 13:20:03 10° N
IRS-1D 3.4 13:10:06 10° N 13:15:14 71° WNW 13:20:14 10° SSW
Exosat Rocket 3.5 13:16:06 10° NNW 13:21:12 60° WSW 13:26:10 10° S
Aureole 1 Rocket 4.5 13:17:10 10° S 13:24:34 78° ESE 13:31:22 10° NNE
Cosmos 2219 3.8 13:19:25 10° NNW 13:25:03 58° ENE 13:30:36 10° SSE
Cosmos 2263 Rocket 2.1 13:30:07 10° NNW 13:35:43 65° WSW 13:41:15 10° S
SKYMED 2 3.8 13:33:55 10° S 13:38:06 48° W 13:42:17 10° NNW
Cosmos 1400 Rocket 3.0 13:38:42 10° SSW 13:42:16 40° W 13:45:52 10° N
Cosmos 1812 2.5 13:44:18 16° SW 13:45:32 24° W 13:47:34 10° NNW
Cosmos 2369 4.3 13:43:24 10° SW 13:48:30 34° WNW 13:53:38 10° N
Cosmos 1782 Rocket 3.7 13:44:38 10° SSW 13:48:55 52° W 13:53:14 10° N
Cosmos 1975 Rocket 4.0 13:45:18 10° N 13:49:28 51° E 13:53:39 10° SSE
Cosmos 783 Rocket 4.5 13:45:01 10° NNW 13:50:08 64° WSW 13:55:14 10° S
SMAP 4.1 13:46:29 10° NNE 13:51:01 50° E 13:55:31 10° S
IGS 5A 3.4 13:49:13 10° N 13:53:07 57° WNW 13:57:00 10° SSW
Cosmos 2082 3.8 13:47:40 10° NNW 13:53:23 84° ENE 13:59:02 10° SSE
Cosmos 374 Rocket 4.2 13:50:34 10° SW 13:54:39 70° WNW 13:58:25 10° NNE
SL-16 R/B 2.2 13:51:09 10° SSW 13:56:48 80° WNW 14:02:29 10° NNE
Cosmos 1802 Rocket 4.5 13:57:26 10° S 14:03:32 68° E 14:09:45 10° NNE
CBERS-1 4.1 13:58:48 10° NNE 14:03:56 90° ESE 14:09:02 10° SSW
Cosmos 372 Rocket 4.0 13:59:39 10° SSW 14:04:34 53° WNW 14:09:34 10° N
Cosmos 2227 Rocket 3.6 14:04:07 10° WNW 14:07:46 18° W 14:11:24 10° SW
Cosmos 1869 3.9 14:05:06 10° SW 14:08:10 27° W 14:11:15 10° NNW
Hubble Space Telescope 3.5 14:07:37 10° S 14:08:41 11° SSE 14:09:47 10° SE
Cosmos 2333 Rocket 2.2 14:03:19 10° SSW 14:09:04 82° WNW 14:14:51 10° NNE
Cosmos 1725 Rocket 4.3 14:07:31 10° S 14:13:39 75° E 14:19:48 10° N
Cosmos 1898 Rocket 3.6 14:09:17 10° SSW 14:14:27 58° WNW 14:19:41 10° N
Thor Agena Rocket 4.1 14:11:33 10° NNE 14:16:48 69° ESE 14:22:02 10° S
